Location: Palomar Mountain Lodge
(33.3110°N, 116.8495°W)
Time: 05:34:36
(UTC-07:00)

Cosmos 1140 Rocket - Pass Details

Date: 12 July 2018
Orbit: 744 x 768 km, 74.1° (Epoch: 22 September)

Event Time Altitude Azimuth Distance (km) Brightness Sun altitude
Rises 20:44:19 0° 204° (SSW) 3,166 6.6 -9.1°
Reaches altitude 10° 20:46:41 10° 207° (SSW) 2,245 5.9 -9.5°
Maximum altitude 20:51:43 62° 288° (WNW) 834 4.0 -10.3°
Drops below altitude 10° 20:56:47 10° 9° (N) 2,262 6.3 -11.2°
Sets 20:59:11 0° 13° (NNE) 3,191 7.0 -11.6°
